Social login voor leden:
METAR EBOS 162250Z 27022G32KT 9999 FEW026 SCT030 05/00 Q0994 NOSIG
TAF EBOS 161710Z 1618/1724 26020G30KT 9999 SCT015 SCT030 PROB40 TEMPO 1612/1712 4000 SHRA BKN014TCU PROB40 TEMPO 1618/1709 26025G45KT 4000 SHRA SHGS BKN014CB

NZVC is de eerste Belgische vliegclub met een erkenning als 'Approved Training Organisation (ATO)'

Sinds 3 maart 2015 is de Noordzee Vliegclub Oostende erkend door de Europese Unie en de Belgian Civil Aviation Authority als Approved Training Organisation (ATO). Hierbij zijn we de eerste vliegclub in België die voldoet aan de nieuwste en strengste Europese normen inzake organisatie, kwaliteit en veiligheid bij de opleiding tot Privaat Piloot (PPL).

 

Opleiding Piloot
Meevliegen
Visit Us
Agenda
Opleiding Piloot
Doopvluchten
Visit Us
Volgende activiteit
Noordzee Vliegclub - Nieuwpoortsesteenweg 947 8400 Oostende - Tel 059 30 04 79 - Dit e-mailadres wordt beveiligd tegen spambots. JavaScript dient ingeschakeld te zijn om het te bekijken.

 - Copyright 2017 ©